Location: Camaret
(48.2753°N, 4.5961°W)
Time: 04:20:28
(UTC+00:00)

ATLAS 5 CENTAUR R/B - Pass Details

Date: 29 October 2020
Orbit: 522 x 1136 km, 63.4° (Epoch: 30 November)

Event Time Altitude Azimuth Distance (km) Brightness Sun altitude
Rises 19:53:36 0° 313° (NW) 3,009 5.9 -28.7°
Reaches altitude 10° 19:56:35 10° 334° (NNW) 2,206 4.8 -29.2°
Enters shadow 19:59:08 17° 5° (N) 1,875 4.0 -29.6°
